TimeCST,TemperatureF,Dew PointF,Humidity,Sea Level PressureIn,VisibilityMPH,Wind Direction,Wind SpeedMPH,Gust SpeedMPH,PrecipitationIn,Events,Conditions,WindDirDegrees,DateUTC
12:15 AM,53.6,50.0,88,29.78,10.0,SSW,11.5,-,N/A,,Scattered Clouds,210,2012-12-15 06:15:00
12:35 AM,53.6,50.0,88,29.78,10.0,SW,10.4,17.3,N/A,,Scattered Clouds,220,2012-12-15 06:35:00
12:55 AM,53.6,48.2,82,29.78,10.0,SW,10.4,-,N/A,,Scattered Clouds,220,2012-12-15 06:55:00
1:15 AM,53.6,46.4,77,29.78,10.0,SW,10.4,17.3,N/A,,Clear,220,2012-12-15 07:15:00
1:35 AM,53.6,44.6,72,29.77,10.0,SW,11.5,18.4,N/A,,Clear,230,2012-12-15 07:35:00
1:55 AM,51.8,44.6,76,29.78,10.0,SW,11.5,18.4,N/A,,Clear,220,2012-12-15 07:55:00
2:15 AM,51.8,42.8,71,29.78,10.0,SW,10.4,17.3,N/A,,Clear,220,2012-12-15 08:15:00
2:35 AM,51.8,41.0,67,29.78,10.0,SW,13.8,19.6,N/A,,Clear,230,2012-12-15 08:35:00
2:55 AM,51.8,41.0,67,29.78,10.0,SW,13.8,19.6,N/A,,Clear,230,2012-12-15 08:55:00
3:15 AM,51.8,41.0,67,29.79,10.0,SW,13.8,17.3,N/A,,Clear,230,2012-12-15 09:15:00
3:35 AM,51.8,39.2,62,29.78,10.0,SW,15.0,21.9,N/A,,Clear,230,2012-12-15 09:35:00
3:55 AM,51.8,37.4,58,29.77,10.0,SW,13.8,23.0,N/A,,Clear,230,2012-12-15 09:55:00
4:15 AM,51.8,37.4,58,29.77,10.0,SW,15.0,19.6,N/A,,Clear,230,2012-12-15 10:15:00
4:35 AM,50.0,37.4,62,29.77,10.0,WSW,15.0,20.7,N/A,,Clear,240,2012-12-15 10:35:00
4:55 AM,50.0,37.4,62,29.77,10.0,SW,13.8,19.6,N/A,,Clear,230,2012-12-15 10:55:00
5:15 AM,48.2,37.4,66,29.77,10.0,SW,13.8,19.6,N/A,,Clear,230,2012-12-15 11:15:00
5:35 AM,50.0,37.4,62,29.78,10.0,SW,13.8,17.3,N/A,,Clear,230,2012-12-15 11:35:00
5:55 AM,48.2,37.4,66,29.79,10.0,SW,12.7,-,N/A,,Clear,230,2012-12-15 11:55:00
6:15 AM,48.2,35.6,62,29.79,10.0,WSW,11.5,18.4,N/A,,Clear,240,2012-12-15 12:15:00
6:35 AM,48.2,35.6,62,29.79,10.0,WSW,12.7,18.4,N/A,,Clear,240,2012-12-15 12:35:00
6:55 AM,50.0,35.6,58,29.79,10.0,WSW,13.8,19.6,N/A,,Clear,250,2012-12-15 12:55:00
7:15 AM,48.2,35.6,62,29.80,10.0,WSW,11.5,18.4,N/A,,Clear,240,2012-12-15 13:15:00
7:35 AM,48.2,35.6,62,29.81,10.0,WSW,10.4,-,N/A,,Clear,250,2012-12-15 13:35:00
7:55 AM,46.4,35.6,66,29.82,10.0,WSW,6.9,-,N/A,,Clear,240,2012-12-15 13:55:00
8:15 AM,46.4,35.6,66,29.82,10.0,WSW,6.9,-,N/A,,Clear,240,2012-12-15 14:15:00
8:35 AM,48.2,35.6,62,29.82,10.0,WSW,8.1,-,N/A,,Clear,250,2012-12-15 14:35:00
8:55 AM,48.2,35.6,62,29.84,10.0,WSW,10.4,-,N/A,,Clear,240,2012-12-15 14:55:00
9:15 AM,48.2,35.6,62,29.84,10.0,WSW,9.2,-,N/A,,Clear,240,2012-12-15 15:15:00
9:35 AM,50.0,35.6,58,29.85,10.0,SSW,4.6,-,N/A,,Clear,210,2012-12-15 15:35:00
9:55 AM,51.8,37.4,58,29.86,10.0,WSW,10.4,-,N/A,,Clear,240,2012-12-15 15:55:00
10:15 AM,53.6,35.6,51,29.86,10.0,West,11.5,-,N/A,,Clear,260,2012-12-15 16:15:00
10:35 AM,55.4,35.6,47,29.85,10.0,West,11.5,16.1,N/A,,Clear,270,2012-12-15 16:35:00
10:55 AM,55.4,35.6,47,29.85,10.0,West,12.7,18.4,N/A,,Clear,260,2012-12-15 16:55:00
11:15 AM,55.4,35.6,47,29.85,10.0,West,12.7,18.4,N/A,,Clear,260,2012-12-15 17:15:00
11:35 AM,55.4,35.6,47,29.85,10.0,West,12.7,19.6,N/A,,Clear,260,2012-12-15 17:35:00
11:55 AM,57.2,35.6,44,29.84,10.0,WSW,13.8,-,N/A,,Clear,250,2012-12-15 17:55:00
12:15 PM,59.0,35.6,42,29.82,10.0,West,11.5,-,N/A,,Clear,260,2012-12-15 18:15:00
12:35 PM,59.0,35.6,42,29.81,10.0,SW,13.8,-,N/A,,Clear,230,2012-12-15 18:35:00
12:55 PM,59.0,35.6,42,29.81,10.0,WSW,15.0,-,N/A,,Clear,250,2012-12-15 18:55:00
1:15 PM,59.0,35.6,42,29.80,10.0,West,13.8,-,N/A,,Clear,260,2012-12-15 19:15:00
1:35 PM,59.0,35.6,42,29.79,10.0,WSW,12.7,18.4,N/A,,Clear,250,2012-12-15 19:35:00
1:55 PM,59.0,35.6,42,29.79,10.0,WSW,13.8,21.9,N/A,,Clear,250,2012-12-15 19:55:00
2:15 PM,59.0,35.6,42,29.78,10.0,WSW,11.5,17.3,N/A,,Clear,240,2012-12-15 20:15:00
2:35 PM,59.0,35.6,42,29.78,10.0,WSW,13.8,20.7,N/A,,Clear,250,2012-12-15 20:35:00
2:55 PM,60.8,33.8,36,29.78,10.0,WSW,16.1,21.9,N/A,,Clear,240,2012-12-15 20:55:00
3:15 PM,60.8,35.6,39,29.77,10.0,WSW,11.5,17.3,N/A,,Clear,250,2012-12-15 21:15:00
3:35 PM,60.8,35.6,39,29.77,10.0,SW,15.0,20.7,N/A,,Clear,230,2012-12-15 21:35:00
3:55 PM,60.8,35.6,39,29.77,10.0,SW,10.4,-,N/A,,Clear,230,2012-12-15 21:55:00
4:15 PM,59.0,35.6,42,29.76,10.0,SW,9.2,-,N/A,,Clear,220,2012-12-15 22:15:00
4:35 PM,59.0,35.6,42,29.77,10.0,SW,8.1,-,N/A,,Clear,220,2012-12-15 22:35:00
4:55 PM,59.0,37.4,45,29.77,10.0,SW,8.1,-,N/A,,Clear,220,2012-12-15 22:55:00
5:15 PM,57.2,35.6,44,29.77,10.0,SW,5.8,-,N/A,,Clear,220,2012-12-15 23:15:00
5:35 PM,55.4,37.4,51,29.78,10.0,SW,6.9,-,N/A,,Clear,220,2012-12-15 23:35:00
5:55 PM,55.4,37.4,51,29.78,10.0,SW,6.9,-,N/A,,Clear,220,2012-12-15 23:55:00
6:15 PM,55.4,37.4,51,29.77,10.0,SW,8.1,-,N/A,,Clear,230,2012-12-16 00:15:00
6:35 PM,55.4,35.6,47,29.78,10.0,SW,10.4,-,N/A,,Clear,220,2012-12-16 00:35:00
6:55 PM,55.4,35.6,47,29.78,10.0,SW,9.2,-,N/A,,Clear,230,2012-12-16 00:55:00
7:15 PM,55.4,35.6,47,29.79,10.0,SW,8.1,-,N/A,,Clear,220,2012-12-16 01:15:00
7:35 PM,53.6,35.6,51,29.79,10.0,SW,9.2,-,N/A,,Clear,230,2012-12-16 01:35:00
7:55 PM,53.6,35.6,51,29.79,10.0,WSW,8.1,-,N/A,,Clear,240,2012-12-16 01:55:00
8:15 PM,53.6,35.6,51,29.79,10.0,SW,6.9,-,N/A,,Clear,230,2012-12-16 02:15:00
8:35 PM,53.6,35.6,51,29.79,10.0,SW,6.9,-,N/A,,Clear,230,2012-12-16 02:35:00
8:55 PM,53.6,35.6,51,29.79,10.0,SW,6.9,-,N/A,,Clear,230,2012-12-16 02:55:00
9:15 PM,51.8,35.6,54,29.80,10.0,SW,6.9,-,N/A,,Clear,230,2012-12-16 03:15:00
9:35 PM,51.8,35.6,54,29.80,10.0,SW,5.8,-,N/A,,Clear,220,2012-12-16 03:35:00
9:55 PM,51.8,35.6,54,29.79,10.0,SW,5.8,-,N/A,,Clear,230,2012-12-16 03:55:00
10:15 PM,51.8,35.6,54,29.78,10.0,SW,6.9,-,N/A,,Clear,220,2012-12-16 04:15:00
10:35 PM,51.8,37.4,58,29.79,10.0,SW,6.9,-,N/A,,Clear,230,2012-12-16 04:35:00
10:55 PM,51.8,37.4,58,29.79,10.0,SW,5.8,-,N/A,,Clear,220,2012-12-16 04:55:00
11:15 PM,51.8,37.4,58,29.79,10.0,SW,5.8,-,N/A,,Clear,220,2012-12-16 05:15:00
11:35 PM,51.8,37.4,58,29.79,10.0,SW,8.1,-,N/A,,Clear,230,2012-12-16 05:35:00
11:55 PM,51.8,37.4,58,29.79,10.0,SW,9.2,-,N/A,,Clear,230,2012-12-16 05:55:00